Zurück zum Katalog

STARLINK-32114

AktivKommunikationVLEO
NORAD 60287·PAYLOAD·🇺🇸 United States

Gestartet Jul 28, 2024 von Cape Canaveral Space Force Station

Loading…

Nächste Überflüge (nächste 24 Stunden)

TLE

AktuellSource: CelesTrak SupGP

Epoche: Sep 14, 2026, 22:23 UTC

1 60287C 24132K   26257.93312500  .00035666  00000+0  11468-2 0  2574
2 60287  53.1583 252.4502 0001338  90.7631  66.1044 15.31686865    12

Verfolge STARLINK-32114 in Echtzeit mit AllMySat

Download on the App Store